Location: Caicarita
(10.0502°N, 67.6875°W)
Time: 11:43:56
(UTC+00:00)

USA 267 - Pass Details

Date: 05 August 2024
Orbit: 1096 x 1111 km, 123.1° (Epoch: 11 September)

Event Time Altitude Azimuth Distance (km) Brightness Sun altitude
Exits shadow 23:08:28 - 120° (ESE) 3,469 5.2 -4.6°
Reaches altitude 10° 23:09:57 10° 115° (ESE) 2,942 4.8 -5.0°
Maximum altitude 23:15:49 37° 50° (NE) 1,625 4.0 -6.3°
Drops below altitude 10° 23:21:42 10° 345° (NNW) 2,947 6.0 -7.7°
Sets 23:24:22 0° 338° (NNW) 3,906 6.8 -8.3°
